Tracking 18876 objects as of 15-Dec-2017
HD Live streaming from Space Station
objects crossing your sky now

N-1 R/B

Track N-1 R/B now!
10-day predictions


NORAD ID: 8710
Int'l Code: 1976-019B
Perigee: 999.5 km
Apogee: 1,015.0 km
Inclination: 69.7 °
Period: 105.1 minutes
Semi major axis: 7378 km
RCS: 1.547 m2 (large)
Launch date: February 29, 1976
Source: Japan (JPN)
Launch site: TANEGASHIMA SPACE CENTER (TNSTA)

Note: This is a ROCKET BODY
aabbcc
Your satellite tracking list
Your tracking list is empty




NASA's NSSDC Master Catalog

Two Line Element Set (TLE):
1  8710U 76019B   17348.63727177 -.00000027 +00000-0 +28202-4 0  9990
2  8710 069.6747 185.9556 0010471 052.1068 005.0996 13.69844282089611
Source of the keplerian elements: AFSPC